Location: Diafouma
(11.0000°N, 12.2833°W)
Time: 13:40:36
(UTC+00:00)

Daily predictions for brighter satellites

Satellite Brightness Start Highest point End
(mag) Time Altitude Azimuth Time Altitude Azimuth Time Altitude Azimuth
STARLINK-24 3.9 18:40:09 10° SSW 18:44:00 47° SE 18:47:52 10° NE
SEDSat Delta rocket 4.1 18:37:50 10° SW 18:44:27 79° SSE 18:51:15 10° ENE
YAOGAN 6 3.9 18:42:31 10° SE 18:45:07 20° ENE 18:47:44 10° NNE
STARLINK-77 4.1 18:41:41 10° SSW 18:45:31 43° ESE 18:49:19 10° NE
SL-16 R/B 4.1 18:41:48 10° SW 18:46:43 31° WNW 18:51:40 10° N
STARLINK-25 4.0 18:43:17 10° SSW 18:47:08 46° SE 18:50:59 10° NE
ATLAS 3B CENTAUR R/B 3.3 18:43:17 10° SW 18:48:08 47° SE 18:59:15 10° ENE
SKYMED 2 3.9 18:44:20 10° N 18:48:38 70° WNW 18:52:57 10° SSW
STARLINK-71 3.7 18:45:01 10° SSW 18:48:58 58° SE 18:52:54 10° NE
Cosmos 1782 Rocket 4.4 18:45:32 10° NNE 18:49:13 27° E 18:52:55 10° SE
ADEOS Rocket 4.5 18:46:48 10° ENE 18:49:38 14° ESE 18:52:31 10° SE
Cosmos 2278 Rocket 2.2 18:44:25 10° N 18:50:01 68° ENE 18:55:37 10° SSE
STARLINK-79 3.8 18:46:32 10° SSW 18:50:26 51° SE 18:54:21 10° NE
STARLINK-78 3.8 18:48:10 10° SSW 18:52:06 55° SE 18:56:02 10° NE
Cosmos 1603 3.8 18:48:03 10° S 18:53:36 59° ESE 18:59:11 10° NNE
Cosmos 1655 Rocket 4.3 18:47:38 10° SSE 18:53:41 47° E 18:59:40 10° NNE
STARLINK-57 3.6 18:49:53 10° SSW 18:53:51 63° ESE 18:57:49 10° NE
STARLINK-49 3.6 18:51:24 10° SSW 18:55:23 61° SE 18:59:20 10° NE
STARLINK-27 3.6 18:53:05 10° SSW 18:57:03 65° SE 19:01:02 10° NE
CORIOLIS 4.3 18:52:33 10° S 18:57:59 81° W 19:03:25 10° NNW
Cosmos 1743 3.8 18:55:22 10° NNE 18:58:35 25° E 19:01:47 10° SE
STARLINK-74 3.6 18:54:42 10° SSW 18:58:41 68° SE 19:02:41 10° NE
STARLINK-39 3.5 18:56:20 10° SSW 19:00:20 73° SE 19:04:20 10° NE
STARLINK-26 3.7 18:57:00 10° SW 19:00:28 58° NW 19:03:56 10° NNE
STARLINK 3.5 18:58:01 10° SSW 19:02:02 77° SE 19:06:02 10° NE
STARLINK-42 3.5 18:59:44 10° SW 19:03:45 88° SE 19:07:46 10° NE
ATLAS 5 CENTAUR R/B 1.6 19:00:57 10° WNW 19:04:06 62° NNE 19:14:16 10° ESE
STARLINK-21 3.5 19:01:17 10° SSW 19:05:18 86° SE 19:09:18 10° NE
STARLINK-45 3.7 19:03:10 10° SW 19:07:10 75° NW 19:11:10 10° NNE
Meteor 2-4 Rocket 4.0 19:01:29 10° S 19:07:13 52° E 19:12:54 10° NNE
Meteor 1-19 Rocket 4.2 19:02:02 10° S 19:07:43 88° WNW 19:13:13 10° N
Okean-O 2.6 19:03:22 10° SSE 19:07:48 89° WSW 19:12:13 10° NNW
Cosmos 1992 Rocket 4.2 19:03:02 10° NNW 19:08:14 75° WSW 19:13:26 10° S
STARLINK-75 3.8 19:04:55 10° SW 19:08:53 66° NW 19:12:52 10° NNE
STARLINK-76 3.6 19:06:15 10° SW 19:10:16 80° NW 19:14:06 11° NNE
Cosmos 1461 3.0 19:06:37 10° S 19:10:30 51° ESE 19:13:55 12° NE
Geosat 4.3 19:06:36 10° NE 19:11:24 47° ESE 19:16:12 10° S
STARLINK 3.6 19:07:54 10° SW 19:11:55 76° NW 19:15:41 11° NNE
STARLINK-32 3.7 19:09:33 10° SW 19:13:33 72° NW 19:17:16 12° NNE
STARLINK-40 3.8 19:11:13 10° SW 19:15:13 68° NW 19:18:51 12° NNE
GPS 2-18 Rocket1 3.3 19:11:49 10° WNW 19:15:38 51° NNE 19:18:13 18° E
Cosmos 1674 Rocket 4.2 19:12:50 10° SSE 19:16:51 34° E 19:20:25 12° NNE
STARLINK-44 3.9 19:12:53 10° SW 19:16:52 64° NW 19:20:28 12° NNE
NOSS 2-1 (C) 4.1 19:13:43 10° S 19:17:50 34° ESE 19:19:51 20° ENE
STARLINK-37 4.1 19:14:37 10° SW 19:18:33 56° NW 19:22:09 12° NNE
STARLINK-36 4.0 19:16:13 10° SW 19:20:10 58° NW 19:23:38 13° NNE
NOSS 2-1 (D) 3.9 19:17:14 10° S 19:21:28 39° ESE 19:23:24 22° ENE
STARLINK-41 4.1 19:17:49 10° SW 19:21:46 56° NW 19:25:09 14° NNE
STARLINK-64 4.2 19:19:29 10° SW 19:23:22 52° NW 19:26:42 14° NNE
SWIFT 3.9 19:20:29 10° NW 19:23:47 22° N 19:25:26 17° NNE
YAOGAN 1 2.9 19:20:14 10° SSE 19:24:19 42° ENE 19:28:22 10° N
Cosmos 1975 3.4 19:20:54 10° NNE 19:24:33 34° E 19:28:14 10° SSE
STARLINK-35 4.3 19:21:16 10° SW 19:25:10 49° NW 19:28:27 14° NNE
CSL-04 Rocket 3.9 19:21:08 10° SE 19:26:06 43° ENE 19:31:03 10° N
STARLINK-51 4.4 19:22:54 10° SW 19:26:46 46° NW 19:30:00 14° NNE
CZ-3B R/B 2.8 19:23:17 10° WNW 19:27:43 35° NNW 19:32:32 18° NE
STARLINK-30 4.5 19:24:35 10° SW 19:28:26 44° NW 19:31:36 14° NNE
Star 63D 3.7 19:23:52 10° WNW 19:28:42 57° NNE 19:29:53 29° E
CZ-4 R/B 4.3 19:25:18 10° SSE 19:29:26 83° ENE 19:33:35 10° N
Cosmos 2084 Rocket 3.4 19:27:37 10° SSW 19:31:56 86° WNW 19:35:03 19° NNE
STARLINK 4.4 19:29:13 10° SW 19:33:03 45° NW 19:35:51 17° NNE
Ariane H10 2.2 19:29:51 10° W 19:33:35 56° S 19:35:27 23° ESE
Cosmos 1939 Rocket 3.5 19:30:18 10° SE 19:33:56 32° ENE 19:34:30 30° ENE
CZ-4C R/B 3.1 19:30:17 10° SW 19:34:29 36° WNW 19:38:57 10° N
Cosmos 1378 Rocket 3.9 19:31:24 10° SSE 19:35:24 39° E 19:36:45 30° NE
GOES 2 Rocket 4.4 19:26:52 10° WNW 19:35:53 76° NNE 19:41:27 17° ESE
ARIANE 5 DEB (SYLDA) 4.4 19:30:55 10° WSW 19:37:28 28° S 19:39:23 16° SE
GPS 2-14 Rocket1 2.9 19:38:50 10° W 19:42:42 53° NNW 19:43:39 41° NNE
Cosmos 2266 Rocket 4.0 19:37:21 10° S 19:43:44 90° ESE 19:50:10 10° N
CSL-04 Debris 4.1 19:38:23 10° SSE 19:43:50 72° ENE 19:49:15 10° N
Atlas Centaur 2 3.0 19:36:43 10° NW 19:44:45 74° NNE 19:51:33 18° ESE
Cosmos 1300 Rocket 4.2 19:46:00 33° ESE 19:46:00 33° ESE 19:49:13 10° SSE
Meteor 1-13 Rocket 4.3 19:44:37 10° S 19:50:24 79° W 19:56:02 10° N
S3M 3.8 19:49:01 10° N 19:55:07 70° E 20:01:10 10° S
Cosmos 2297 3.5 19:49:39 10° N 19:55:17 72° ENE 20:00:52 10° SSE
ISS -1.1 19:54:18 10° NNW 19:54:29 11° NNW 19:54:29 11° NNW
Cosmos 405 3.4 19:54:34 10° SSW 19:58:01 60° W 19:58:56 42° NNW
USA 81 4.1 19:55:16 10° S 20:00:32 76° W 20:05:15 13° N
CZ-2D R/B 3.2 19:58:35 10° S 20:02:26 83° WSW 20:03:11 57° NNW
Cosmos 2151 Rocket 4.2 20:07:16 42° SSE 20:07:16 42° SSE 20:10:18 10° SSE
Orbus 7S 4.1 20:03:18 10° SW 20:05:20 34° SW 20:05:20 34° SW
NOSS 2-1 (E) 3.8 20:02:45 10° SW 20:06:52 51° WNW 20:07:15 48° NW
Cosmos 1553 Rocket 4.5 20:01:16 10° NNW 20:07:34 62° W 20:13:51 10° S
NOAA 11 4.1 20:02:14 10° S 20:07:40 83° WSW 20:13:07 10° NNW
CZ-2C R/B 3.5 20:10:59 82° E 20:11:03 83° ESE 20:15:34 10° S
Meteor 1-23 Rocket 4.1 20:07:45 10° S 20:13:26 84° E 20:15:02 50° NNE
CZ-4 R/B 3.8 20:10:22 10° SSW 20:13:31 22° W 20:16:38 10° NW
H-2A ROCKET BODY 2.1 20:07:03 10° WSW 20:15:46 51° NW 20:15:51 50° NNW
Meteor 2-19 Rocket 4.3 20:10:41 10° S 20:16:46 89° W 20:19:12 39° N
Cosmos 489 Rocket 4.3 20:15:25 10° N 20:21:45 80° ENE 20:28:05 10° SSE
ADEOS Rocket 3.9 20:31:46 21° NNW 20:34:55 40° WNW 20:40:19 10° SW
USA 267 3.2 20:29:52 10° SSE 20:36:24 78° SW 20:42:57 10° NW
ATLAS 3B CENTAUR R/B 4.3 21:06:57 10° W 21:15:46 60° NNW 21:16:59 58° N
CZ-3B R/B 4.3 21:18:46 10° NW 21:20:46 18° NW 21:20:46 18° NW
Atlas Centaur 2 4.1 21:26:57 10° W 21:34:16 39° SW 21:34:16 39° SW
CZ-3C R/B 4.3 21:34:29 10° W 21:59:11 37° NW 21:59:11 37° NW
